• Join FlightAware (Why Join?)
  • Login
  • US Flag 
10:26PM EST


 

Airport Tracker/Info


-or-


 

Live Flight TrackerFlight Track Log ✈ EJM685 ✈ 18-Oct-2013 ✈ KPBI - KTEB

Flight Track Log - Related Links

Times and Time Zones

All times are in EDT time to prevent confusion due to time zone crossing. See the EJM685 flight status page for this flight to view local times or setup timezone preferences in your user account.

Time Position Orientation Groundspeed Altitude Reporting Facility
EDT Latitude Longitude Course Direction KTS MPH feet Rate Location/Type
06:48PM 26.7328 -79.9550 42° Northeast 259 298 7,400  Level Miami Center
06:49PM 26.7925 -79.8914 44° Northeast 284 327 10,900 2,520 Climbing Miami Center
06:50PM 26.8567 -79.8161 46° Northeast 324 373 12,500 2,400 Climbing Miami Center
06:51PM 26.9256 -79.7108 54° Northeast 367 422 15,800 2,220 Climbing Miami Center
06:52PM 27.2546 -79.8883 42° Northeast  Level Estimated
06:52PM 26.9881 -79.6119 55° Northeast 382 440 17,000  Level Miami Center
06:53PM 27.0506 -79.5156 54° Northeast 390 449 17,200 1,200 Climbing Miami Center
06:54PM 27.1106 -79.4236 54° Northeast 390 449 19,500 2,340 Climbing Miami Center
06:55PM 27.1836 -79.3083 55° Northeast 401 461 21,900 2,280 Climbing Miami Center
06:56PM 27.2564 -79.1956 54° Northeast 422 486 24,100 2,100 Climbing Miami Center
06:57PM 27.3292 -79.0847 54° Northeast 434 499 26,100 1,800 Climbing Miami Center
06:58PM 27.4142 -78.9928 44° Northeast 451 519 27,800 1,800 Climbing Miami Center
06:59PM 27.5419 -78.9600 13° North 441 507 29,700 2,100 Climbing Miami Center
07:00PM 27.6906 -78.9369 North 473 544 32,100 2,280 Climbing Miami Center
07:01PM 27.8244 -78.9183 North 486 559 34,300 2,220 Climbing Miami Center
07:02PM 27.9394 -78.9014 North 474 545 36,600 2,340 Climbing Miami Center
07:03PM 28.0631 -78.8850 North 458 527 39,000 1,980 Climbing Miami Center
07:04PM 28.1906 -78.8658 North 453 521 40,600 1,500 Climbing Miami Center
07:05PM 28.3097 -78.8469 North 447 514 42,000 1,200 Climbing Miami Center
07:06PM 28.4333 -78.8278 North 453 521 43,100 960 Climbing Miami Center
07:07PM 28.5586 -78.8086 North 442 509 44,000 720 Climbing Miami Center
07:08PM 28.6781 -78.7894 North 442 509 44,600 420 Climbing Miami Center
07:09PM 28.8056 -78.7728 North 448 516 44,900 180 Climbing Miami Center
07:10PM 28.9331 -78.7536 North 448 516 45,000  Climbing Miami Center
07:11PM 29.0564 -78.7344 North 449 517 45,000  Level Miami Center
07:12PM 29.1839 -78.7128 North 449 517 45,000  Level Miami Center
07:13PM 29.3094 -78.6933 North 449 517 45,000  Level Miami Center
07:14PM 29.4306 -78.6717 North 444 511 45,000  Level Miami Center
07:17PM 29.7464 -78.6278 North 455 524 45,000  Level Jacksonville Center
07:18PM 29.8753 -78.6078 North 466 536 45,000  Level Jacksonville Center
07:19PM 29.9931 -78.5786 12° North 450 518 45,000  Level Jacksonville Center
07:20PM 30.1264 -78.5653 North 456 525 45,000  Level Jacksonville Center
07:21PM 30.2403 -78.5458 North 461 531 45,000  Level Jacksonville Center
07:22PM 30.3692 -78.5278 North 461 531 45,000  Level Jacksonville Center
07:23PM 30.5042 -78.5072 North 468 539 45,000  Level Jacksonville Center
07:24PM 30.6328 -78.4869 North 468 539 45,000  Level Jacksonville Center
07:25PM 30.7617 -78.4664 North 468 539 45,000  Level Jacksonville Center
07:26PM 30.8903 -78.4458 North 463 533 45,000  Level Jacksonville Center
07:27PM 31.0211 -78.4253 North 463 533 45,000  Level Jacksonville Center
07:28PM 31.1478 -78.4069 North 463 533 45,000  Level Jacksonville Center
07:29PM 31.2806 -78.3811 North 463 533 45,000  Level Jacksonville Center
07:30PM 31.4072 -78.3631 North 463 533 45,000  Level Jacksonville Center
07:31PM 31.5339 -78.3444 North 463 533 45,000  Level Jacksonville Center
07:32PM 31.6625 -78.3236 North 463 533 45,000  Level Jacksonville Center
07:33PM 31.7911 -78.3003 North 463 533 45,000  Level Jacksonville Center
07:34PM 31.9175 -78.2792 North 463 533 45,000  Level Jacksonville Center
07:35PM 32.0506 -78.2603 North 463 533 45,000  Level Jacksonville Center
07:36PM 32.1917 -78.2383 North 463 533 45,000  Level Jacksonville Center
07:37PM 32.3097 -78.2153 North 463 533 45,000 -60 Level Jacksonville Center
07:38PM 32.4406 -78.1936 North 463 533 44,900  Descending Jacksonville Center
07:39PM 32.5711 -78.1697 North 463 533 45,000  Climbing Jacksonville Center
07:40PM 32.7039 -78.1481 North 474 545 45,000  Level Jacksonville Center
07:41PM 32.8325 -78.1264 North 474 545 45,000  Level Jacksonville Center
07:42PM 32.9733 -78.1042 North 480 552 45,000  Level Jacksonville Center
07:44PM 33.2536 -78.0572 North 485 558 45,000  Level Washington Center
07:45PM 33.3811 -78.0386 North 479 551 45,000  Level Washington Center
07:46PM 33.5111 -78.0175 North 473 544 45,000  Level Washington Center
07:47PM 33.6408 -77.9964 North 468 539 45,000  Level Washington Center
07:48PM 33.7703 -77.9800 North 468 539 45,000  Level Washington Center
07:49PM 33.9039 -77.9764 North 462 532 45,000  Level Washington Center
07:50PM 34.0356 -77.9675 North 473 544 45,000  Level Washington Center
07:51PM 34.1672 -77.9639 North 473 544 45,000  Level Washington Center
07:52PM 34.2903 -77.9650 360° North 473 544 45,000  Level Washington Center
07:53PM 34.4197 -77.9586 North 478 550 45,000  Level Washington Center
07:54PM 34.5533 -77.9522 North 478 550 45,000  Level Washington Center
07:55PM 34.6850 -77.9461 North 478 550 45,000  Level Washington Center
07:56PM 34.8164 -77.9422 North 478 550 45,000 180 Level Washington Center
07:57PM 34.9544 -77.9311 North 472 543 45,400 420 Climbing Washington Center
07:58PM 35.0858 -77.9272 North 467 537 45,900 240 Climbing Washington Center
07:59PM 35.2175 -77.9208 North 467 537 46,000  Climbing Washington Center
08:00PM 35.3531 -77.9172 North 467 537 46,000  Level Washington Center
08:01PM 35.4869 -77.9031 North 472 543 46,000  Level Washington Center
08:02PM 35.6086 -77.8683 13° North 486 559 46,000  Level Washington Center
08:03PM 35.7428 -77.8339 12° North 486 559 46,000  Level Washington Center
08:04PM 35.8792 -77.7992 12° North 486 559 46,000  Level Washington Center
08:05PM 36.0133 -77.7619 13° North 492 566 46,000  Level Washington Center
08:06PM 36.1475 -77.7294 11° North 487 560 46,000  Level Washington Center
08:07PM 36.2817 -77.6944 12° North 487 560 46,000  Level Washington Center
08:08PM 36.4136 -77.6567 13° North 487 560 46,000  Level Washington Center
08:09PM 36.5414 -77.6239 12° North 476 548 46,000  Level Washington Center
08:10PM 36.6756 -77.5861 13° North 476 548 46,000  Level Washington Center
08:11PM 36.8097 -77.5506 12° North 481 554 46,000  Level Washington Center
08:12PM 36.9481 -77.5125 12° North 493 567 46,000  Level Washington Center
08:13PM 37.0822 -77.4767 12° North 493 567 46,000  Level Washington Center
08:14PM 37.2122 -77.4383 13° North 488 562 46,000  Level Washington Center
08:15PM 37.3444 -77.3786 20° North 488 562 46,000  Level Washington Center
08:16PM 37.4767 -77.3189 20° North 499 574 46,000 -360 Level Washington Center
08:17PM 37.6069 -77.2564 21° North 499 574 45,300 -1,140 Descending Washington Center
08:18PM 37.7372 -77.1911 22° Northeast 499 574 43,800 -1,680 Descending Washington Center
08:19PM 37.8653 -77.1094 27° Northeast 499 574 42,000 -1,860 Descending Washington Center
08:20PM 37.9958 -77.0225 28° Northeast 509 586 40,200 -1,860 Descending Washington Center
08:21PM 38.1261 -76.9325 29° Northeast 520 598 38,300 -2,400 Descending Washington Center
08:22PM 38.2564 -76.8450 28° Northeast 520 598 35,400 -2,820 Descending Washington Center
08:23PM 38.3864 -76.7597 27° Northeast 520 598 32,800 -1,980 Descending Washington Center
08:24PM 38.5228 -76.6664 28° Northeast 527 606 31,500 -1,020 Descending Washington Center
08:25PM 38.6550 -76.5753 28° Northeast 532 612 30,800 -1,320 Descending Washington Center
08:26PM 38.7892 -76.4839 28° Northeast 538 619 29,000 -1,800 Descending Washington Center
08:27PM 38.9147 -76.3972 28° Northeast 523 602 27,300 -1,680 Descending Washington Center
08:28PM 39.0361 -76.3158 28° Northeast 505 581 25,600 -1,680 Descending Washington Center
08:29PM 39.1533 -76.2286 30° Northeast 492 566 24,000 -840 Descending Washington Center
08:30PM 39.2625 -76.1008 42° Northeast 481 554 24,000 -540 Level Washington Center
08:31PM 39.3692 -75.9997 36° Northeast 481 554 23,000 -2,040 Descending Washington Center
08:33PM 39.6000 -75.7833 36° Northeast 429 494 17,400 -2,460 Descending Philadelphia TRACON
08:34PM 39.7000 -75.6833 38° Northeast 414 476 14,800 -2,100 Descending Philadelphia TRACON
08:35PM 39.7833 -75.6000 38° Northeast 388 447 13,000 -960 Descending Philadelphia TRACON
08:36PM 39.8667 -75.5333 32° Northeast 386 444 13,000  Level Philadelphia TRACON
08:37PM 39.9667 -75.4500 33° Northeast 383 441 13,000  Level Philadelphia TRACON
08:38PM 40.0500 -75.3667 37° Northeast 388 447 13,000  Level Philadelphia TRACON
08:39PM 40.1333 -75.2833 37° Northeast 380 437 13,000 -600 Level Philadelphia TRACON
08:40PM 40.2167 -75.2167 31° Northeast 319 367 11,900 -1,560 Descending Philadelphia TRACON
08:42PM 40.3167 -75.1167 37° Northeast 312 359 9,200 -1,800 Descending New York TRACON
08:43PM 40.3833 -75.0333 44° Northeast 309 356 7,500 -1,260 Descending New York TRACON
08:44PM 40.4333 -74.9500 52° Northeast 290 334 6,600 -1,080 Descending New York TRACON
08:45PM 40.4833 -74.8833 45° Northeast 277 319 5,400 -900 Descending New York TRACON
08:46PM 40.5333 -74.8167 45° Northeast 256 295 5,000 -360 Descending New York TRACON
08:47PM 40.5833 -74.7333 52° Northeast 256 295 4,700 -480 Descending New York TRACON
08:48PM 40.6500 -74.6833 30° Northeast 259 298 4,100 -660 Descending New York TRACON
08:49PM 40.7000 -74.6167 45° Northeast 262 302 3,400 -600 Descending New York TRACON
08:50PM 40.7500 -74.5500 45° Northeast 263 303 3,000 -240 Descending New York TRACON
08:51PM 40.8167 -74.4833 37° Northeast 260 299 3,000  Level New York TRACON
08:52PM 40.8500 -74.4167 57° Northeast 261 300 3,000  Level New York TRACON
08:53PM 40.8833 -74.3333 62° Northeast 254 292 3,000 -60 Level New York TRACON
08:54PM 40.9333 -74.2667 45° Northeast 233 268 2,900 -540 Descending New York TRACON
08:55PM 40.9500 -74.2000 72° East 213 245 2,000 -480 Descending New York TRACON
08:56PM 40.9667 -74.1167 75° East 205 236 2,000 -240 Level New York TRACON
08:57PM 40.9333 -74.0667 131° Southeast 172 198 1,600 -600 Descending New York TRACON
08:58PM 40.9000 -74.0500 159° South 137 158 800 -840 Descending New York TRACON